Location: Bannatyne
(13.0833°N, 59.5333°W)
Time: 10:10:40
(UTC+00:00)

Vanguard 2 Rocket - Pass Details

Date: 23 January 2020
Orbit: 554 x 3326 km, 32.9° (Epoch: 28 March)

Event Time Altitude Azimuth Distance (km) Brightness Sun altitude
Rises 09:18:29 0° 294° (WNW) 2,787 - -16.2°
Reaches altitude 10° 09:21:46 10° 325° (NW) 2,072 - -15.5°
Exits shadow 09:22:37 12° 335° (NNW) 2,010 8.3 -15.3°
Maximum altitude 09:23:57 13° 353° (N) 2,044 8.5 -15.0°
Drops below altitude 10° 09:26:30 10° 21° (NNE) 2,487 9.2 -14.4°
Sets 09:31:21 0° 47° (NE) 3,974 10.6 -13.2°
